www.pogodaiklimat.ru

Погода и климат >> Архив погоды >> Индия >> Мадхья-Прадеш >> Кхаджурахо


ПОГОДА в Кхаджурахо

  • Прогноз погоды в Кхаджурахо
  • Монитор погоды в Кхаджурахо

АРХИВ ПОГОДЫ в Кхаджурахо

Время (UTC), дата Ветер
(напр.,м/с)
 
Видим.   Явления Облачность Т
(С)
Тd
(С)
f
(%)
Тe
(С)
Тes
(С)
Комфортность P
(гПа)
Po
(гПа)
Тmin
(С)
Tmax
(С)
R
(мм)
R24
(мм)
S
(см)
03 20.05 штиль 0 4000 м мгла ясно +33.6 +14.0 31 +35 +47 душно 1007.7 983.2 +23.0
06 20.05 С 2 4000 м ясно +40.0 +9.9 16 +38 +61 опасность
солнечного
удара
1007.0 983.0
09 20.05 С 5 4000 м ясно +42.0 +7.1 12 +39 +48 очень
жарко
1003.9 980.1
12 20.05 С 3 4000 м ясно +41.0 +6.9 13 +39 +40 очень
жарко
1002.9 979.1 +42.4
03 21.05 З 2 4000 м мгла ясно +34.0 +11.3 25 +34 +43 очень
жарко
1005.8 981.4 +23.4
06 21.05 СВ 2 4000 м ясно +41.4 +8.5 14 +39 +63 опасность
солнечного
удара
1004.9 981.1
09 21.05 СЗ 3 4000 м ясно +44.6 +9.6 13 +43 +57 опасность
перегрева
1002.5 979.0
12 21.05 СЗ 2 4000 м ясно +42.0 +9.1 14 +40 +42 очень
жарко
1002.3 978.6 +45.0
03 22.05 штиль 0 4000 м мгла ясно +34.2 +15.8 33 +36 +49 душно 1003.8 979.4 +26.8
06 22.05 В 4 4000 м ясно +43.0 +12.8 17 +43 +57 опасность
перегрева
1002.6 978.9
09 22.05 З 3 4000 м ясно +44.6 +10.2 13 +43 +57 опасность
перегрева
999.3 975.8
12 22.05 З 2 4000 м ясно +42.2 +9.5 14 +40 +42 очень
жарко
999.2 975.6 +45.4
03 23.05 В 2 4000 м мгла ясно +36.2 +15.2 29 +38 +47 очень
душно
1003.0 978.8 +27.0
06 23.05 В 2 4000 м ясно +42.4 +13.8 19 +43 +64 опасность
перегрева
1002.1 978.4
09 23.05 З 2 4000 м 5/5 750 м
[Cu Sc]
+44.2 +10.6 14 +43 +51 опасность
перегрева
998.4 974.9
12 23.05 З 2 4000 м 4/0
[Ci fib]
+43.4 +12.5 16 +43 +45 опасность
перегрева
997.5 974.0 +45.6
03 24.05 З 2 4000 м мгла ясно +35.0 +17.3 35 +38 +47 очень
душно
1003.1 978.8 +28.4
06 24.05 С 2 4000 м ясно +40.2 +15.0 23 +41 +65 опасность
перегрева
1002.6 978.7
09 24.05 З 3 4000 м ясно +44.0 +15.6 19 +45 +58 опасность
перегрева
999.3 975.8
12 24.05 З 4 4000 м 5/5 750 м
[Cu Sc]
+43.2 +12.6 17 +43 +44 опасность
перегрева
997.9 974.4 +44.4
03 25.05 З 1 4000 м мгла 4/4 750 м
[Sc]
+35.2 +17.2 34 +38 +45 очень
душно
1005.3 981.0 +29.0
06 25.05 СЗ 3 4000 м ясно +40.0 +11.1 18 +39 +57 опасность
солнечного
удара
1003.5 979.6
09 25.05 З 6 4000 м 3/3 750 м
[Sc]
+42.6 +8.5 13 +41 +45 опасность
перегрева
1000.0 976.4
12 25.05 СЗ 3 4000 м 3/3 750 м
[Sc]
+40.8 +11.5 18 +40 +41 очень
жарко
999.4 975.6 +42.8
03 26.05 З 1 4000 м мгла ясно +33.0 +12.2 28 +33 +44 жарко 1003.9 979.4 +24.6
06 26.05 З 2 4000 м ясно +40.0 +11.1 18 +39 +62 опасность
солнечного
удара
1003.1 979.2
09 26.05 З 3 4000 м ясно +43.6 +10.6 14 +42 +55 опасность
перегрева
999.8 976.2
12 26.05 СЗ 4 4000 м ясно +42.0 +7.8 13 +40 +41 очень
жарко
999.0 975.3 +43.8

 

Местоположение метеостанции Кхаджурахо (Мадхья-Прадеш, Индия): широта 24.98 долгота 79.92 высота над уровнем моря 221 м.

В архиве по умолчанию представлена погода в Кхаджурахо за последнюю неделю. Архивные данные за месяц целиком и за предыдущие месяцы, начиная с января 2011 года, Вы можете получить, выбрав интересующий диапазон дат из раскрывающегося списка и нажав кнопку "Ввод!".


*Определитесь, кто Вы:
робот инопланетянин человек

Внимание! Время в таблицах - всемирное. Для получения местного времени необходимо прибавить поправку, которая равна 5.5 ч.

Смотрите также архив погоды в соседних городах и на ближайших метеорологических станциях:

Погода в Ноугонге (Мадхья-Прадеш, Индия) (48 км)
Погода в Банде (Уттар-Прадеш, Индия) (71 км)
Погода в Сатне (Мадхья-Прадеш, Индия) (103 км)
Погода в Хамирпуре (Уттар-Прадеш, Индия) (110 км)
Погода в Тикамгархе (Мадхья-Прадеш, Индия) (112 км)
Погода в Дамо (Мадхья-Прадеш, Индия) (136 км)
Погода в Джханси (Уттар-Прадеш, Индия) (141 км)
Погода в Реве (Мадхья-Прадеш, Индия) (148 км)
Погода в Сагаре (Мадхья-Прадеш, Индия) (173 км)
Погода в Умарии (Мадхья-Прадеш, Индия) (188 км)

Пояснения к столбцам:

Ветер - указаны скорость ветра в м/с - средняя за 10 мин, порывы в срок и между сроками (в фигурных скобках) и направление, откуда дует ветер: С - северный, СВ - северо-восточный, В - восточный, ЮВ - юго-восточный, Ю - южный, ЮЗ - юго-западный, З - западный, СЗ - северо-западный.
Видимость - горизонтальная дальность видимости в метрах или километрах. При видимости от 1 до 10 км при отсутствии осадков обычно наблюдается дымка, при ухудшении видимости до 1 км и менее - туман. В сухую погоду видимость может ухудшаться дымом, пылью или мглою.
Явления - указаны атмосферные явления, наблюдавшиеся в срок или в последний час перед сроком; фигурными скобками обозначены явления, наблюдавшиеся между сроками (за 1-3 часа до срока); квадратными скобками обозначены град или гололедные отложения с указанием их диаметра в мм.
Облачность - указаны через наклонную черту общая и нижняя облачность в баллах и высота нижней границы облаков в метрах; квадратными скобками обозначены формы облаков: Ci - перистые, Cs - перисто-слоистые, Cc - перисто-кучевые, Ac - высококучевые, As - высокослоистые, Sc - слоисто-кучевые, Ns - слоисто-дождевые, Cu - кучевые, Cb - кучево-дождевые. Подробнее классификацию облаков см. в Атласе облаков (PDF).
T - Температура воздуха - температура, измеренная на высоте 2 м над землей.
Td - Температура точки росы - температура, при понижении до которой содержащийся в воздухе водяной пар достигнет насыщения.
f - Относительная влажность воздуха - влажноcть воздуха, измеренная на высоте 2 м над землей.
Te - Эффективная температура - температура, которую ощущает одетый по сезону человек в тени. Характеристика душности погоды. При расчете учитывается влияние влажности воздуха и скорости ветра на теплоощущения человека.
Tes - Эффективная температура на солнце - температура, которую ощущает человек, с поправкой на солнечный нагрев. Характеристика знойности погоды. Зависит от высоты солнца над горизонтом, облачности и скорости ветра. Ночью, в пасмурную погоду, а также при ветре 12 м/с и более поправка равна нулю.
P - Атмосферное давление - приведенное к уровню моря атмосферное давление.
Po - Атмосферное давление - измеренное на уровне метеостанции атмосферное давление.
Tmin - Минимальная температура - минимум температуры воздуха на высоте 2 м над землей.
Tmax - Максимальная температура - максимум температуры воздуха на высоте 2 м над землей.
R - Количество осадков - Количество выпавших осадков за период времени, мм. При наведении курсора мыши на число - период времени, за который выпало указанное количество осадков.
R24 - Количество осадков - Количество выпавших осадков за 24 часа, мм.
S - Снежный покров - Высота снежного покрова, см. При наведении курсора мыши на число - состояние снежного покрова и степень покрытия местности в баллах.